Terminal Aerodrome Forecast
Issued by NWS

Home | Current Version | Previous Version | Graphics & Text | Print | Product List | Glossary On
Versions: 1 2 3 4 5 6 7 8 9 10 11 12 13 14 15 16 17 18 19 20
000
FTUS42 KMHX 210209 AAA
TAFPGV
TAF AMD
KPGV 210209Z 2102/2124 08005KT P6SM SCT030
      TEMPO 2102/2103 BKN030
     FM210800 06005KT P6SM BKN025
     FM211400 13010KT P6SM VCTS SCT025 BKN050CB
     FM211800 33012KT 5SM SHRA VCTS BKN025CB
     FM212200 34011KT P6SM BKN025
      AMD LTD TO CLD VIS AND WIND=

USA.gov is the U.S. government's official web portal to all federal, state and local government web resources and services.